TimeEDT,TemperatureF,Dew PointF,Humidity,Sea Level PressureIn,VisibilityMPH,Wind Direction,Wind SpeedMPH,Gust SpeedMPH,PrecipitationIn,Events,Conditions,WindDirDegrees,DateUTC
12:53 AM,39.9,21.0,47,30.01,10.0,Calm,Calm,-,N/A,,Overcast,0,2013-03-23 04:53:00
1:53 AM,37.9,26.1,62,29.99,10.0,Calm,Calm,-,N/A,,Overcast,0,2013-03-23 05:53:00
2:53 AM,39.0,26.1,60,29.99,10.0,Calm,Calm,-,N/A,,Overcast,0,2013-03-23 06:53:00
3:53 AM,37.9,26.1,62,29.97,10.0,Calm,Calm,-,N/A,,Overcast,0,2013-03-23 07:53:00
4:53 AM,37.0,24.1,59,29.96,10.0,Calm,Calm,-,N/A,,Scattered Clouds,0,2013-03-23 08:53:00
5:53 AM,36.0,27.0,70,29.96,10.0,Calm,Calm,-,N/A,,Overcast,0,2013-03-23 09:53:00
6:53 AM,37.0,27.0,67,29.98,10.0,Calm,Calm,-,N/A,,Overcast,0,2013-03-23 10:53:00
7:53 AM,37.0,28.0,70,29.98,10.0,Calm,Calm,-,0.00,,Overcast,0,2013-03-23 11:53:00
8:53 AM,39.0,27.0,62,30.00,10.0,Calm,Calm,-,N/A,,Overcast,0,2013-03-23 12:53:00
9:53 AM,39.9,27.0,60,30.00,10.0,Calm,Calm,-,N/A,,Overcast,0,2013-03-23 13:53:00
10:53 AM,42.1,28.0,58,30.00,10.0,Calm,Calm,-,N/A,,Overcast,0,2013-03-23 14:53:00
11:53 AM,44.1,27.0,51,29.99,10.0,Calm,Calm,-,N/A,,Overcast,0,2013-03-23 15:53:00
12:53 PM,46.0,27.0,47,29.98,10.0,Calm,Calm,-,N/A,,Overcast,0,2013-03-23 16:53:00
1:53 PM,46.9,28.9,50,29.96,10.0,Calm,Calm,-,N/A,,Overcast,0,2013-03-23 17:53:00
2:16 PM,48.0,30.9,52,29.97,10.0,Calm,Calm,-,N/A,,Overcast,0,2013-03-23 18:16:00
2:53 PM,48.9,32.0,52,29.94,10.0,Calm,Calm,-,N/A,,Overcast,0,2013-03-23 18:53:00
3:53 PM,50.0,33.1,52,29.93,10.0,East,4.6,-,N/A,,Overcast,90,2013-03-23 19:53:00
4:39 PM,52.0,33.1,49,29.94,10.0,Variable,3.5,-,N/A,,Mostly Cloudy,0,2013-03-23 20:39:00
4:53 PM,52.0,34.0,50,29.92,10.0,SSE,4.6,-,N/A,,Mostly Cloudy,150,2013-03-23 20:53:00
5:53 PM,53.1,34.0,48,29.89,10.0,Calm,Calm,-,N/A,,Scattered Clouds,0,2013-03-23 21:53:00
6:53 PM,51.1,35.1,54,29.90,10.0,SSE,3.5,-,N/A,,Mostly Cloudy,160,2013-03-23 22:53:00
7:53 PM,50.0,36.0,59,29.89,10.0,Calm,Calm,-,N/A,,Mostly Cloudy,0,2013-03-23 23:53:00
8:53 PM,44.1,35.1,71,29.90,10.0,Calm,Calm,-,N/A,,Mostly Cloudy,0,2013-03-24 00:53:00
9:53 PM,45.0,36.0,71,29.88,10.0,Calm,Calm,-,N/A,,Mostly Cloudy,0,2013-03-24 01:53:00
10:53 PM,43.0,36.0,76,29.83,10.0,Calm,Calm,-,N/A,,Mostly Cloudy,0,2013-03-24 02:53:00
11:53 PM,45.0,35.1,68,29.81,10.0,NE,5.8,-,N/A,,Mostly Cloudy,50,2013-03-24 03:53:00